GLOBALSTAR M083

Last updated on Sat Sep 05 2026 00:03:15 GMT+0000 (Coordinated Universal Time)

1 37739U 11033A 26247.62726381 -.00000104 00000+0 -30557-5 0 9994 2 37739 51.9850 130.5990 0000593 95.4533 279.9363 12.62258822702985
UTC large
Height (km)
Speed (km/s)
/
Latitude / Longitude
Inclination (degrees)
Orbital Period (minutes)
Azimuth
Elevation
Range (km)
Doppler Factor

Next 0 passes for location: London (51.5072 / 0.1276)

No passes found over London.
GLOBALSTAR M083